Date String (YYYY-MM-DD hh:mm:ss) UTC,Instrument flags,absolute air pressure of the measurement (hPa),sample flow rate (lpm),inlet stack bypass flow (lpm),air temperature of the measurement (°C),ambient temperature measured by the external sensor (°C),aerosol sample conditioner tube jacket temperature (°C),OPC LED temperature (°C),internal box temperature (°C),relative humidity of the measurement (%),span deviation,mass concentration of particles derived from Lorenz-Mie calculation of OPC scattering (μg/m³),mass concentration of particles derived from Lorenz-Mie calculation of OPC scattering (μg/m³),mass concentration of particles derived from Lorenz-Mie calculation of OPC scattering (μg/m³)
DateTimeUTC,F1_M11,P_M11,Q1_M11,Q2_M11,T1_M11,T2_M11,T3_M11,T4_M11,T5_M11,U1_M11,ZSPAN_M11,X0_M11,X2_M11,X1_M11
2023-08-23 19:00:00,SystemResetWarning,0835.1,5.00,000.00,027.7,024.5,000.0,035.8,029.1,26.1,0001.4,0021.15,0008.58,0007.33
2023-08-23 19:01:00,SystemResetWarning,0835.0,5.02,000.00,027.6,024.1,000.0,035.7,029.0,26.5,0001.4,0022.36,0008.64,0007.39
2023-08-23 19:02:00,SystemResetWarning,0835.0,4.99,000.00,027.5,024.5,000.0,035.8,029.0,26.4,0001.7,0023.07,0008.70,0007.45
2023-08-23 19:03:00,SystemResetWarning,0835.0,5.00,000.00,027.5,024.9,000.0,035.8,029.1,26.3,0001.8,0023.42,0008.81,0007.51
2023-08-23 19:04:00,SystemResetWarning,0835.0,5.00,000.00,027.5,025.3,000.0,035.8,029.3,26.3,0002.3,0023.07,0008.96,0007.57
2023-08-23 19:05:00,SystemResetWarning,0835.0,5.00,000.00,027.6,025.8,000.0,035.9,029.4,26.4,0002.4,0022.50,0008.98,0007.61
2023-08-23 19:06:00,SystemResetWarning,0835.0,5.00,000.00,027.6,026.0,000.0,035.9,029.4,26.2,0002.3,0021.31,0008.98,0007.66
2023-08-23 19:07:00,SystemResetWarning,0835.0,4.99,000.00,027.6,025.0,000.0,035.8,029.2,26.2,0002.3,0020.68,0009.05,0007.70
2023-08-23 19:08:00,SystemResetWarning,0835.0,5.01,000.00,027.5,024.0,000.0,035.7,028.9,26.5,0002.3,0020.44,0009.12,0007.73
2023-08-23 19:09:00,SystemResetWarning,0835.0,5.00,000.00,027.5,024.1,000.0,035.7,028.9,27.6,0002.3,0020.72,0009.16,0007.76
2023-08-23 19:10:00,SystemResetWarning,0835.0,5.01,000.00,027.4,024.5,000.0,035.7,029.0,27.7,0002.4,0021.18,0009.17,0007.76
2023-08-23 19:11:00,SystemResetWarning,0835.0,5.00,000.00,027.5,025.0,000.0,035.8,029.1,27.5,0002.5,0021.04,0009.16,0007.77
2023-08-23 19:12:00,SystemResetWarning,0835.0,5.00,000.00,027.5,025.4,000.0,035.8,029.2,27.3,0002.6,0019.65,0009.13,0007.76
2023-08-23 19:13:00,SystemResetWarning,0835.0,5.00,000.00,027.5,025.8,000.0,035.8,029.3,27.0,0002.3,0019.41,0009.11,0007.74
2023-08-23 19:14:00,SystemResetWarning,0835.0,5.00,000.00,027.6,026.1,000.0,035.9,029.4,26.4,0001.9,0018.85,0009.04,0007.71
2023-08-23 19:15:00,SystemResetWarning,0835.0,4.98,000.00,027.6,025.1,000.0,035.8,029.2,26.8,0001.5,0018.88,0008.98,0007.68
2023-08-23 19:16:00,SystemResetWarning,0834.9,5.00,000.00,027.5,024.0,000.0,035.7,028.9,27.4,0001.4,0018.95,0009.02,0007.68
2023-08-23 19:17:00,SystemResetWarning,0835.0,5.02,000.00,027.5,024.1,000.0,035.6,028.9,27.1,0001.5,0019.25,0009.07,0007.68
2023-08-23 19:18:00,SystemResetWarning,0835.3,5.00,000.00,027.4,024.5,000.0,035.7,029.0,26.6,0001.6,0019.35,0009.03,0007.67
2023-08-23 19:19:00,SystemResetWarning,0835.4,4.99,000.00,027.4,024.9,000.0,035.7,029.1,26.9,0001.2,0019.49,0009.02,0007.68
2023-08-23 19:20:00,SystemResetWarning,0835.3,5.00,000.00,027.5,025.4,000.0,035.8,029.2,27.2,0001.0,0019.49,0008.98,0007.68
2023-08-23 19:21:00,SystemResetWarning,0835.3,5.01,000.00,027.5,025.8,000.0,035.8,029.3,27.5,0001.2,0019.76,0008.97,0007.69
2023-08-23 19:22:00,SystemResetWarning,0835.1,5.00,000.00,027.6,026.1,000.0,035.8,029.4,27.0,0001.2,0018.39,0008.96,0007.68
2023-08-23 19:23:00,SystemResetWarning,0834.7,4.98,000.00,027.6,025.1,000.0,035.7,029.1,26.6,0001.3,0018.04,0008.95,0007.67
2023-08-23 19:24:00,SystemResetWarning,0834.7,5.01,000.00,027.5,024.0,000.0,035.6,028.9,26.8,0001.4,0017.19,0008.94,0007.66
2023-08-23 19:25:00,SystemResetWarning,0834.8,5.01,000.00,027.4,024.2,000.0,035.6,028.9,27.0,0002.1,0017.13,0008.93,0007.66
2023-08-23 19:26:00,SystemResetWarning,0834.7,5.00,000.00,027.4,024.6,000.0,035.7,028.9,26.6,0002.5,0016.99,0008.95,0007.68
2023-08-23 19:27:00,SystemResetWarning,0835.0,5.00,000.00,027.4,025.0,000.0,035.7,029.1,26.7,0002.4,0017.89,0008.95,0007.70
2023-08-23 19:28:00,SystemResetWarning,0834.7,5.00,000.00,027.5,025.5,000.0,035.7,029.2,27.0,0002.6,0017.77,0008.92,0007.71
2023-08-23 19:29:00,SystemResetWarning,0835.0,4.99,000.00,027.5,025.9,000.0,035.8,029.3,26.5,0002.6,0017.99,0008.95,0007.73
2023-08-23 19:30:00,SystemResetWarning,0835.0,5.00,000.00,027.6,026.3,000.0,035.8,029.4,26.6,0002.7,0018.46,0008.97,0007.78
2023-08-23 19:31:00,SystemResetWarning,0835.0,4.99,000.00,027.6,026.0,000.0,035.8,029.4,26.8,0002.8,0018.28,0009.00,0007.79
2023-08-23 19:32:00,SystemResetWarning,0835.0,5.00,000.00,027.6,024.6,000.0,035.7,029.1,26.3,0002.8,0018.01,0009.08,0007.82
2023-08-23 19:33:00,SystemResetWarning,0834.9,5.02,000.00,027.5,024.2,000.0,035.6,029.0,26.3,0002.6,0018.89,0009.11,0007.85
2023-08-23 19:34:00,SystemResetWarning,0834.6,5.00,000.00,027.5,024.6,000.0,035.6,029.0,26.7,0002.7,0018.90,0009.13,0007.90
2023-08-23 19:35:00,SystemResetWarning,0834.7,5.01,000.00,027.5,025.0,000.0,035.7,029.1,27.0,0002.5,0018.99,0009.18,0007.94
2023-08-23 19:36:00,SystemResetWarning,0834.7,4.99,000.00,027.5,025.4,000.0,035.7,029.2,26.9,0002.4,0019.29,0009.23,0007.97
2023-08-23 19:37:00,SystemResetWarning,0834.8,5.00,000.00,027.5,025.8,000.0,035.8,029.3,26.9,0002.2,0019.82,0009.22,0007.99
2023-08-23 19:38:00,SystemResetWarning,0835.1,5.00,000.00,027.6,026.2,000.0,035.8,029.4,27.3,0002.2,0019.49,0009.23,0008.00
2023-08-23 19:39:00,SystemResetWarning,0834.9,5.00,000.00,027.6,026.0,000.0,035.8,029.4,27.0,0002.3,0019.47,0009.28,0008.00
2023-08-23 19:40:00,SystemResetWarning,0834.6,4.98,000.00,027.6,024.6,000.0,035.7,029.1,27.2,0002.0,0019.70,0009.26,0008.00
2023-08-23 19:41:00,SystemResetWarning,0834.6,5.01,000.00,027.5,024.2,000.0,035.7,029.0,27.8,0001.9,0018.83,0009.24,0007.98
2023-08-23 19:42:00,SystemResetWarning,0834.7,5.02,000.00,027.5,024.6,000.0,035.7,029.0,28.4,0001.9,0018.53,0009.18,0007.97
2023-08-23 19:43:00,SystemResetWarning,0834.7,4.99,000.00,027.5,025.0,000.0,035.7,029.1,27.8,0001.4,0017.70,0009.09,0007.96
2023-08-23 19:44:00,SystemResetWarning,0834.7,5.00,000.00,027.5,025.5,000.0,035.8,029.3,27.3,0001.5,0017.13,0009.07,0007.95
2023-08-23 19:45:00,SystemResetWarning,0834.7,4.99,000.00,027.6,025.9,000.0,035.8,029.4,27.4,0001.5,0017.24,0009.07,0007.93
2023-08-23 19:46:00,SystemResetWarning,0834.6,5.00,000.00,027.6,026.3,000.0,035.8,029.5,27.0,0001.6,0017.56,0009.05,0007.92
2023-08-23 19:47:00,SystemResetWarning,0834.8,4.99,000.00,027.7,026.1,000.0,035.8,029.5,27.4,0001.2,0017.12,0009.00,0007.91
2023-08-23 19:48:00,SystemResetWarning,0834.7,4.99,000.00,027.6,024.7,000.0,035.8,029.1,27.0,0001.2,0017.42,0009.01,0007.92
2023-08-23 19:49:00,SystemResetWarning,0834.7,5.02,000.00,027.6,024.3,000.0,035.7,029.0,26.6,0001.5,0017.48,0008.98,0007.90
2023-08-23 19:50:00,SystemResetWarning,0834.7,5.00,000.00,027.6,024.7,000.0,035.7,029.1,26.4,0001.5,0018.10,0008.98,0007.90
2023-08-23 19:51:00,SystemResetWarning,0834.7,4.99,000.00,027.5,025.1,000.0,035.8,029.1,26.9,0001.5,0019.32,0009.00,0007.90
2023-08-23 19:52:00,SystemResetWarning,0834.6,5.00,000.00,027.6,025.5,000.0,035.8,029.3,26.5,0001.6,0020.11,0008.99,0007.90
2023-08-23 19:53:00,SystemResetWarning,0834.8,5.00,000.00,027.6,025.9,000.0,035.8,029.4,26.2,0001.5,0020.71,0008.97,0007.89
2023-08-23 19:54:00,SystemResetWarning,0834.6,5.01,000.00,027.7,026.3,000.0,035.9,029.5,26.3,0001.8,0020.71,0009.00,0007.89
2023-08-23 19:55:00,SystemResetWarning,0834.7,4.99,000.00,027.7,026.0,000.0,035.9,029.5,27.2,0001.9,0020.61,0009.02,0007.88
2023-08-23 19:56:00,SystemResetWarning,0834.9,5.00,000.00,027.7,024.5,000.0,035.8,029.2,27.4,0002.2,0020.75,0009.01,0007.86
2023-08-23 19:57:00,SystemResetWarning,0835.1,5.01,000.00,027.6,024.1,000.0,035.7,029.0,27.8,0002.1,0020.96,0008.97,0007.85
2023-08-23 19:58:00,SystemResetWarning,0835.1,5.01,000.00,027.6,024.5,000.0,035.7,029.1,28.0,0002.5,0021.21,0008.90,0007.84
2023-08-23 19:59:00,SystemResetWarning,0835.0,5.00,000.00,027.6,025.0,000.0,035.8,029.2,28.0,0002.4,0021.07,0008.86,0007.81
